Location: Alma
(38.7220°N, 88.9090°W)
Time: 10:59:54
(UTC-06:00)

Vanguard 2 Rocket - Pass Details

Date: 18 November 2019
Orbit: 554 x 3326 km, 32.9° (Epoch: 06 December)

Event Time Altitude Azimuth Distance (km) Brightness Sun altitude
Rises 01:43:26 0° 243° (WSW) 2,767 - -57.1°
Reaches altitude 10° 01:45:30 10° 235° (SW) 1,963 - -56.7°
Maximum altitude 01:49:34 40° 165° (SSE) 1,100 - -56.0°
Drops below altitude 10° 01:55:28 10° 98° (E) 2,861 - -55.0°
Exits shadow 01:56:27 - 96° (E) 3,232 10.1 -54.8°
Sets 01:59:06 0° 92° (E) 4,246 10.8 -54.3°
